User: anonymous   Login
Location: Enid
(36.3960°N, 97.8780°W)
Time: 15:57:19
(UTC-05:00)
Language:

Hubble Space Telescope - Orbit

View from above orbital plane
View from above orbital plane
View from above satellite
View from above satellite

Ground track
Ground track

The orbit data is extracted from the following two-line orbital elements,

1 20580U 90037B   15241.52331703  .00001491  00000-0  84021-4 0  9995
2 20580 028.4709 030.4489 0002739 308.1820 123.7387 15.07649982190886
Epoch (UTC): 29 August 2015 12:33:34
Eccentricity: 0.0002739
inclination: 28.4709°
perigee height: 541 km
apogee height: 545 km
right ascension of ascending node: 30.4489°
argument of perigee: 308.1820°
revolutions per day: 15.07649982
mean anomaly at epoch: 123.7387°
orbit number at epoch: 19088

The dashed part of the orbit path shows where the satellite is in the earth's shadow,  

DLR